Location: Unnamed
(45.5165°N, 0.0069°W)
Time: 14:16:59
(UTC+01:00)

ISS - Visible Passes

Search period start: 27 February 2021 00:00
Search period end: 09 March 2021 00:00
Orbit: 417 x 422 km, 51.6° (Epoch: 27 February)

Date Brightness Start Highest point End Pass type
(mag) Time Alt. Az. Time Alt. Az. Time Alt. Az.
27 Feb -0.6 04:52:06 15° ENE 04:52:06 15° ENE 04:52:46 10° ENE visible
27 Feb -2.8 06:25:04 25° WNW 06:26:24 35° NNW 06:29:33 10° NE visible
28 Feb -2.7 05:39:28 39° NNE 05:39:28 39° NNE 05:42:06 10° NE visible
01 Mar -0.8 04:53:50 16° NE 04:53:50 16° NE 04:54:39 10° ENE visible
01 Mar -2.3 06:26:47 18° NW 06:28:34 28° N 06:31:32 10° ENE visible
02 Mar -2.4 05:41:07 30° N 05:41:07 30° N 05:43:59 10° NE visible
03 Mar -0.9 04:55:27 17° NE 04:55:27 17° NE 04:56:29 10° NE visible
03 Mar -2.2 06:28:24 14° NW 06:30:44 28° N 06:33:43 10° ENE visible
04 Mar -2.3 05:42:43 27° NNW 05:43:06 27° N 05:46:04 10° ENE visible
05 Mar -1.1 04:57:03 19° NE 04:57:03 19° NE 04:58:26 10° ENE visible
05 Mar -2.6 06:30:01 12° NW 06:32:51 37° NNE 06:36:01 10° E visible
06 Mar -2.3 05:44:21 27° NNW 05:45:15 31° N 05:48:19 10° ENE visible
07 Mar -1.4 04:58:44 23° NE 04:58:44 23° NE 05:00:36 10° ENE visible
07 Mar -3.5 06:31:42 12° WNW 06:34:50 67° NNE 06:38:10 10° ESE visible
08 Mar -3.0 05:46:08 32° NNW 05:47:16 48° NNE 05:50:33 10° E visible
